Grantley Adams, Barbados

8:03 PM AST on January 16, 2018 (GMT -0400)
Grantley Adams International

Weather History for TBPB - June, 2013

Change the Weather History Date:

Monday, June 3, 2013

  Actual Average Record
Temperature  
Mean Temperature 81 °F -  
Max Temperature 86 °F 85 °F 89 °F (2006)
Min Temperature 76 °F 77 °F 74 °F (2012)
Cooling Degree Days 16    
Growing Degree Days 31 (Base 50)    
Moisture  
Dew Point 77 °F    
Average Humidity 86    
Maximum Humidity 100    
Minimum Humidity 75    
Precipitation  
Precipitation 0.01 in - - ()
Sea Level Pressure  
Sea Level Pressure 29.99 in    
Wind  
Wind Speed 18 mph ()    
Max Wind Speed 25 mph    
Max Gust Speed -    
Visibility 7.0 miles    
Events Rain    
Averages and records for this station are not official NWS values.
T = Trace of Precipitation, MM = Missing Value Source: Averaged Metar Reports

Daily Weather History Graph

Daily Weather History Graph

Search for Another Location

Airport or City:

Trip Planner

Search our weather history database for the weather conditions in past years. The results will help you decide how hot, cold, wet, or windy it might be!

Date:

Astronomy

Jun. 03, 2013 Rise Set
Actual Time 5:30 AM AST 6:21 PM AST
Civil Twilight 5:07 AM AST 6:45 PM AST
Nautical Twilight 4:39 AM AST 7:12 PM AST
Astronomical Twilight 4:12 AM AST 7:40 PM AST
Moon 1:44 AM AST (6/3) 2:23 PM AST (6/3)
Length of Visible Light 13h 37m
Length of Day
12h 51m
Waning Crescent, 22% of the Moon is Illuminated
Jun 3
Waning Crescent
Jun 8
New
Jun 16
First Quarter
Jun 23
Full
Jun 30
Last Quarter

Hourly Weather History & Observations

Time (AST) Temp. Heat Index Dew Point Humidity Pressure Visibility Wind Dir Wind Speed Gust Speed Precip Events Conditions
12:00 AM 78.8 °F - 77.0 °F 94% 30.01 in 6.2 mi ESE 20.7 mph - N/A   Mostly Cloudy
1:00 AM 78.8 °F - 78.8 °F 100% 29.95 in 6.2 mi ESE 15.0 mph - N/A   Mostly Cloudy
2:00 AM 80 °F - 80 °F 98% 29.96 in 11 mi ESE 19.6 mph - -   Partly Cloudy
2:00 AM 78.8 °F - 78.8 °F 100% 29.95 in 6.2 mi ESE 19.6 mph - N/A   Mostly Cloudy
3:00 AM 78.8 °F - 73.4 °F 83% 29.95 in 6.2 mi ESE 19.6 mph - N/A   Mostly Cloudy
4:00 AM 80.6 °F 86.2 °F 75.2 °F 84% 29.95 in 6.2 mi SE 17.3 mph - N/A   Mostly Cloudy
5:00 AM 81 °F - 75 °F 76% 29.98 in 11 mi SE 18.4 mph - -   Partly Cloudy
5:00 AM 80.6 °F 86.2 °F 75.2 °F 84% 29.98 in 6.2 mi SE 18.4 mph - N/A   Mostly Cloudy
6:00 AM 78.8 °F - 73.4 °F 83% 29.98 in 5.0 mi SE 25.3 mph - N/A Rain Light Rain Showers
7:00 AM 80.6 °F 85.4 °F 73.4 °F 79% 30.01 in 6.2 mi SE 19.6 mph - N/A   Mostly Cloudy
8:00 AM 81 °F - 77 °F 85% 30.02 in 11 mi SE 19.6 mph - -   Mostly Cloudy
8:00 AM 80.6 °F 87.1 °F 77.0 °F 89% 30.01 in 6.2 mi SE 19.6 mph - N/A   Mostly Cloudy
9:00 AM 82.4 °F 92.4 °F 78.8 °F 89% 30.04 in 6.2 mi SSE 20.7 mph - N/A   Mostly Cloudy
10:00 AM 82.4 °F 94.0 °F 80.6 °F 94% 30.04 in 5.6 mi SE 19.6 mph - N/A Rain Light Rain Showers
11:00 AM 85 °F - 79 °F 76% 30.02 in 14 mi SE 19.6 mph - -   Partly Cloudy
11:00 AM 86.0 °F 99.3 °F 78.8 °F 79% 30.01 in 6.2 mi SE 19.6 mph - N/A   Mostly Cloudy
12:00 PM 84.2 °F 98.3 °F 80.6 °F 89% 30.01 in 6.2 mi SE 19.6 mph - N/A   Mostly Cloudy
1:00 PM 86.0 °F 99.3 °F 78.8 °F 79% 30.01 in 6.2 mi SE 16.1 mph - N/A   Mostly Cloudy
2:00 PM 81 °F - 76 °F 82% 29.99 in 9 mi SE 13.8 mph - -   Partly Cloudy
2:00 PM 80.6 °F 87.1 °F 77.0 °F 89% 29.98 in 6.2 mi SE 13.8 mph - N/A   Mostly Cloudy
3:00 PM 84.2 °F 96.1 °F 78.8 °F 84% 29.95 in 6.2 mi SE 20.7 mph - N/A   Mostly Cloudy
4:00 PM 84.2 °F 96.1 °F 78.8 °F 84% 29.98 in 6.2 mi ESE 21.9 mph - N/A   Mostly Cloudy
5:00 PM 83 °F - 79 °F 83% 29.97 in 7 mi SE 20.7 mph - -   Widespread Dust
5:00 PM 84.2 °F 96.1 °F 78.8 °F 84% 29.98 in 6.2 mi SE 20.7 mph - N/A   Mostly Cloudy
6:00 PM 82.4 °F 90.9 °F 77.0 °F 84% 29.98 in 5.6 mi SE 19.6 mph - N/A   Mostly Cloudy
7:00 PM 80.6 °F 88.1 °F 78.8 °F 94% 29.98 in 5.6 mi ESE 21.9 mph - N/A   Mostly Cloudy
8:00 PM 83 °F - 76 °F 75% 30.01 in 7 mi ESE 23.0 mph - -   Widespread Dust
8:00 PM 82.4 °F 90.9 °F 77.0 °F 84% 30.01 in 6.2 mi ESE 23.0 mph - N/A   Mostly Cloudy
9:00 PM 80.6 °F 87.1 °F 77.0 °F 89% 30.01 in 6.2 mi ESE 19.6 mph - N/A   Mostly Cloudy
10:00 PM 80.6 °F 87.1 °F 77.0 °F 89% 30.04 in 6.2 mi ESE 23.0 mph - N/A   Mostly Cloudy
11:00 PM 80.6 °F 87.1 °F 77.0 °F 89% 30.04 in 6.2 mi ESE 23.0 mph - N/A   Mostly Cloudy